Location: *
(42.0175°N, 9.4056°E)
Time: 08:13:14
(UTC+00:00)

USA 32 - Pass Details

Date: 25 August 2019
Orbit: 777 x 783 km, 85.0° (Epoch: 16 September)

Event Time Altitude Azimuth Distance (km) Brightness Sun altitude
Rises 20:51:49 0° 351° (N) 3,270 8.1 -26.8°
Reaches altitude 10° 20:54:12 10° 348° (NNW) 2,337 7.2 -27.1°
Maximum altitude 20:59:21 60° 270° (W) 888 4.4 -27.7°
Enters shadow 20:59:51 57° 243° (WSW) 912 4.3 -27.8°
